Location: Newark
(49.8348°N, 24.0280°E)
Time: 20:33:47
(UTC+00:00)

deb Explorer IX - Pass Details

Date: 03 February 2020
Orbit: 549 x 1099 km, 38.8° (Epoch: 22 February)

Event Time Altitude Azimuth Distance (km) Brightness Sun altitude
Rises 19:37:36 0° 257° (WSW) 3,524 ? -40.9°
Reaches altitude 10° 19:40:22 10° 247° (WSW) 2,667 ? -41.3°
Enters shadow 19:41:20 14° 241° (WSW) 2,403 ? -41.4°
